Location: Lagoa do Velho
(6.0000°S, 35.8667°W)
Time: 03:49:42
(UTC+00:00)

Daily predictions for brighter satellites

Satellite Brightness Start Highest point End
(mag) Time Altitude Azimuth Time Altitude Azimuth Time Altitude Azimuth
Intelsat 5-1 Rocket 4.3 05:42:45 45° SE 05:42:45 45° SE 05:46:45 10° E
ATLAS 2AS CENTAUR R/B 4.1 05:49:39 32° NE 05:49:39 32° NE 05:53:36 10° NNE
Orbus 21S 4.4 06:05:30 83° SW 06:05:57 89° SSE 07:03:53 10° ENE
Orbus 21S 4.4 06:05:31 83° SW 06:05:57 89° SSE 07:03:54 10° ENE
Orbus 21S 4.4 06:05:30 83° SW 06:05:57 89° SSE 07:03:54 10° ENE
ATLAS CENTAUR R/B 3.7 06:17:07 24° ENE 06:17:17 24° ENE 06:21:03 10° ESE
Hubble Space Telescope 3.5 06:22:36 15° SE 06:22:36 15° SE 06:23:23 10° SE
Cosmos 2227 Rocket 4.5 06:18:24 10° SSE 06:22:40 22° ESE 06:26:54 10° ENE
ARIANE 5 R/B 4.5 06:25:22 36° NNE 06:25:34 36° NNE 06:36:05 10° E
Ariane H10 3.4 06:36:09 49° E 06:36:09 49° E 06:38:16 10° E
Cosmos 2297 Rocket 3.2 06:32:52 10° S 06:38:15 45° ESE 06:43:35 10° NE
Cosmos 1980 Rocket 4.2 06:46:28 14° SSW 06:46:28 14° SSW 06:47:26 10° SSW
ARIANE 5 DEB (SYLDA) 4.4 06:40:49 43° NNW 06:42:51 51° N 06:55:55 10° ENE
deb Ariane 4.4 06:45:41 38° W 06:50:22 86° N 06:54:33 10° E
Cosmos 1386 Rocket 4.3 06:45:21 12° N 06:51:09 81° W 06:57:18 10° S
Ariane 42L Rocket 4.1 06:50:07 44° NW 06:52:30 65° NNE 07:08:49 10° E
Cosmos 1862 4.3 06:57:52 36° S 06:57:52 36° S 07:00:19 10° S
ARIANE 5 DEB (SYLDA) 4.3 06:55:31 34° NNW 06:56:26 38° NNE 07:06:11 10° ENE
Chandra Rocket (1) 3.0 06:55:01 34° NNW 06:56:49 46° NNE 07:00:01 10° E
ATLAS 3B CENTAUR R/B 1.5 06:58:37 55° NNE 06:58:37 55° NNE 07:03:09 10° NE
Cosmos 2322 Rocket 3.0 06:53:30 10° N 06:59:00 52° ENE 07:04:32 10° SSE
Cosmos 1190 Rocket 4.1 07:02:48 50° WNW 07:02:48 50° WNW 07:07:36 10° N
BREEZE-M DEB (TANK) 2.9 07:07:31 32° SSE 07:07:31 32° SSE 07:09:39 10° SSE
Delta 168 3.6 07:06:11 39° SW 07:06:40 40° SSW 07:11:49 10° SE
Cosmos 676 Rocket 3.9 07:03:55 10° SSW 07:09:16 85° WNW 07:14:36 10° N
RESURS DK-1 2.2 07:09:29 10° SSW 07:13:36 77° WNW 07:17:41 10° NNE
Cosmos 2219 3.1 07:09:15 10° SSW 07:14:59 78° WNW 07:20:39 10° N
Aurora 2 Rocket 3.0 07:13:07 25° WSW 07:16:42 75° SSE 07:21:10 10° ENE
Landsat 5 3.4 07:15:13 10° SSE 07:19:07 74° ENE 07:22:55 10° N
Atlas Centaur 2 1.5 07:20:50 39° W 07:21:59 54° NNW 07:26:36 10° NE
SL-16 R/B 2.2 07:20:43 11° NNW 07:26:05 56° WSW 07:31:38 10° S
deb Ariane 3.2 07:26:03 27° NNW 07:26:19 28° NNW 07:28:28 10° NE
Cosmos 1805 Rocket 3.5 07:23:58 10° N 07:28:24 89° ESE 07:32:49 10° S
OAO 3 Copernicus 4.4 07:24:35 15° SW 07:28:45 74° SE 07:33:46 10° ENE
SEDSat Delta rocket 4.4 07:24:25 10° SW 07:28:59 45° SSE 07:34:18 10° ENE
Cosmos 1818 3.9 07:23:49 10° SSW 07:29:09 67° ESE 07:34:29 10° NNE
Cosmos 1812 3.8 07:25:32 10° S 07:29:15 47° E 07:32:57 10° NNE
ATLAS 2A CENTAUR R/B 4.1 07:25:17 24° W 07:29:24 60° SSW 07:59:56 10° ESE
Cosmos 1743 Rocket 4.1 07:26:44 18° NW 07:29:30 36° W 07:33:33 10° SSW
GPS 2-15 Rocket1 4.3 07:28:38 14° SW 07:32:22 37° SSE 07:36:43 10° E
CZ-4C R/B 2.8 07:32:51 10° S 07:35:56 51° WSW 07:39:03 10° NNW
ATLAS 2AS CENTAUR R/B 4.3 07:37:15 15° WNW 07:37:15 15° WNW 07:40:42 10° NW
Ariane H10+ 3.1 07:36:02 15° NW 07:38:38 28° N 07:46:06 10° ENE
Cosmos 1992 Rocket 4.2 07:34:02 10° N 07:39:12 75° ENE 07:44:24 10° SSE
Ariane H10 3.3 07:33:45 18° W 07:39:49 72° N 07:42:31 10° ENE
deb Chang Zheng 4 3.6 07:36:09 10° N 07:40:23 58° WNW 07:44:40 10° SSW
ARIANE 5 R/B 2.1 07:40:48 21° NW 07:41:49 35° NNE 07:45:30 10° E
YAOGAN 6 2.4 07:39:39 10° N 07:43:07 90° W 07:46:38 10° S
Intelsat 5-3 Rocket 2.5 07:41:05 20° WNW 07:43:17 79° SSW 07:50:16 10° ESE
H-2A R/B 2.1 07:41:29 10° SSE 07:45:57 88° W 07:50:16 10° NNW
Lacrosse 5 rocket 1.5 07:42:21 10° SSW 07:46:24 76° ESE 07:50:39 10° NE
Cosmos 1850 Rocket 4.3 07:41:17 10° S 07:46:34 74° ESE 07:51:46 10° NNE
ARIANE 5 R/B 4.3 07:44:22 12° NW 07:46:45 23° N 07:50:55 10° ENE
Meteor 2-6 Rocket 4.4 07:41:06 10° S 07:47:03 89° W 07:53:01 10° N
Cosmos 1437 Rocket 4.3 07:47:01 10° SW 07:49:47 18° W 07:52:32 10° NW
Sich 1 3.0 07:45:30 10° NNW 07:49:47 64° W 07:54:04 10° S
H-2A R/B 3.2 07:46:50 10° N 07:50:24 38° W 07:53:58 10° SSW
Envisat 2.9 07:46:10 10° N 07:51:11 69° WNW 07:56:15 10° SSW
Cosmos 1666 Rocket 4.0 07:47:29 10° N 07:51:53 68° E 07:56:19 10° S
Cosmos 2237 4.2 07:46:55 10° NNW 07:52:33 69° WSW 07:58:12 10° S
SJ-7 4.4 07:48:52 10° N 07:52:55 69° W 07:57:04 10° SSW
NOAA 6 4.5 07:48:38 10° NNE 07:53:41 67° ESE 07:58:46 10° S
Cosmos 1782 4.1 07:50:54 10° SW 07:53:43 19° W 07:56:32 10° NW
Cosmos 1151 Rocket 4.5 07:51:11 10° SW 07:54:02 17° W 07:56:53 10° NW
Cosmos 1242 Rocket 2.5 07:52:34 10° SSW 07:55:54 50° W 07:59:13 10° N
ATLAS CENTAUR R/B 3.1 07:53:23 12° WNW 07:56:00 18° WSW 07:59:16 10° SSW
Okean O Rocket 4.4 07:53:03 10° NE 07:56:36 24° ESE 08:00:09 10° SSE
ARIANE 5 R/B 4.0 07:53:59 10° NW 07:56:38 30° NNE 08:05:00 10° ENE
CZ-4B R/B 3.9 07:55:34 10° NNW 07:59:20 28° WNW 08:03:01 10° SW
Meteor 1-20 Rocket 4.4 07:53:35 10° N 07:59:25 88° E 08:05:17 10° S
MOS 1 Rocket 3.1 08:01:12 10° SSE 08:05:31 85° ENE 08:09:46 10° N
Cosmos 2227 Rocket 3.1 08:01:48 10° SW 08:06:26 26° WNW 08:11:04 10° NNW
USA 215 3.3 08:01:52 10° NNE 08:08:23 78° NW 08:14:56 10° SW
Cosmos 2360 Rocket 2.3 08:04:51 10° NNW 08:10:21 55° WSW 08:15:52 10° S
SL-24 R/B 4.4 08:05:28 10° N 08:10:40 87° WNW 08:15:20 10° SSW
COSMOS 2455 3.7 08:07:27 10° S 08:13:21 58° ESE 08:19:13 10° NNE
